Wind_Speed
25 26 26 25 25 25 25 24 24 23 22 22 20 20 20 20 20 20 20 20 20 20 20 20 21 21 21 20 20 20 20 20 20 20 20 21 21 22 22 22 22 22 23 23
26 26 26 26 26 26 26 26 25 24 24 24 22 21 21 21 21 22 21 21 21 21 21 21 21 22 22 21 20 20 20 21 21 21 21 22 22 22 22 22 22 22 22 23
27 27 27 28 27 27 27 26 26 25 25 25 25 24 24 23 23 23 22 22 22 22 22 22 22 22 22 22 21 21 21 22 22 21 22 22 22 22 22 22 23 23 23 23
26 27 28 28 27 27 27 27 27 27 27 27 26 26 26 25 24 24 23 23 23 23 23 23 23 23 22 22 22 23 23 23 22 22 22 23 23 23 23 24 24 25 25 25
26 27 27 28 27 27 27 28 28 28 28 28 28 27 27 27 26 25 25 24 25 25 24 24 24 23 23 23 23 23 23 23 23 24 24 25 25 25 26 25 25 26 26 26
26 26 26 28 28 27 28 29 28 28 28 28 28 28 27 27 27 26 26 25 25 25 25 25 24 24 24 24 24 24 24 24 25 25 26 26 26 27 28 28 28 28 28 28
26 27 27 28 27 27 28 28 27 27 28 28 28 28 28 28 28 27 27 26 26 27 26 26 26 25 25 25 25 25 25 25 26 26 26 27 28 29 29 29 30 29 29 29
26 27 28 28 28 28 28 28 27 27 27 28 28 28 28 29 29 28 28 28 28 28 28 28 28 27 26 26 27 26 26 26 26 27 27 28 28 29 29 30 31 31 30 30
25 26 28 29 29 29 29 28 27 27 28 29 28 29 30 30 29 29 29 29 29 29 29 29 29 28 28 28 28 27 28 27 27 28 28 29 29 29 30 31 31 31 30 30
27 27 28 29 29 30 30 30 29 28 28 29 29 29 30 30 29 30 29 29 30 30 30 29 29 30 30 30 30 29 29 29 29 30 30 30 30 30 30 31 31 31 30 30
29 29 28 28 29 30 29 29 29 29 29 30 30 30 30 30 30 30 30 30 30 30 30 30 30 31 31 32 32 31 31 31 31 31 31 30 30 30 31 31 31 32 32 32
29 29 28 27 28 28 29 30 30 30 30 30 31 31 31 30 30 30 30 30 30 31 30 30 30 32 32 33 33 33 32 32 32 31 31 31 31 31 31 31 32 31 31 31
29 29 29 28 27 27 28 29 30 30 31 31 32 32 32 31 31 30 30 31 31 31 31 31 32 33 33 34 34 33 33 33 32 31 31 31 31 31 31 32 32 32 31 31
28 29 29 28 27 27 28 28 29 30 31 31 32 31 31 31 31 31 31 31 31 31 31 32 33 33 33 33 33 33 33 32 31 31 31 31 32 32 32 32 32 32 32 31
27 28 29 29 28 28 28 28 29 30 30 30 31 31 31 31 31 32 32 32 32 32 32 33 33 33 33 33 34 33 33 33 33 33 33 33 33 33 32 32 31 31 32 31
27 28 29 28 28 28 28 29 29 29 29 30 29 29 29 30 31 32 32 33 32 32 32 33 33 33 33 33 33 33 33 34 34 34 34 33 33 33 32 32 32 32 32 32
27 27 27 27 28 28 28 28 28 28 29 29 29 29 29 29 29 29 30 31 31 32 32 32 33 33 32 32 33 33 34 34 34 34 34 34 33 33 33 33 33 33 33 32
24 25 26 27 27 27 28 28 28 28 28 28 28 28 28 28 28 28 28 29 30 30 31 32 32 33 33 34 34 34 34 34 34 34 34 34 34 34 34 34 33 33 33 32
24 24 24 24 24 25 27 28 27 26 26 27 27 27 28 28 28 28 29 29 30 31 31 32 33 34 34 35 35 35 35 35 35 35 35 35 35 35 35 34 33 33 32 31
23 23 23 23 23 24 25 25 25 25 25 26 27 27 28 29 29 30 30 30 30 31 32 32 33 34 35 36 36 36 36 36 36 36 36 36 35 35 35 34 33 32 32 32
22 23 23 23 23 23 22 23 23 23 24 25 26 26 27 29 30 30 30 31 31 32 32 32 33 34 35 35 35 35 35 35 35 36 35 35 35 34 34 33 32 32 32 32
21 21 22 22 23 22 22 23 23 23 23 23 24 26 27 28 29 29 30 30 30 30 31 31 32 32 33 33 32 32 32 32 32 32 32 32 32 32 32 31 31 31 31 31
19 20 20 20 21 21 21 22 23 23 23 23 23 24 25 26 27 28 28 28 28 28 29 29 29 29 29 29 29 29 29 29 29 29 29 30 30 31 31 30 30 30 30 30
18 19 19 19 19 19 20 20 21 21 22 22 22 23 24 25 26 27 27 26 26 26 27 27 27 27 27 27 27 27 28 28 28 28 29 30 30 30 30 29 29 29 29 29
17 17 18 18 18 18 18 18 18 19 20 20 21 22 22 23 24 24 24 23 23 24 24 24 24 25 25 25 26 26 26 26 26 26 27 27 26 26 26 27 27 27 28 28
15 16 16 16 17 17 16 17 18 18 18 19 21 21 21 21 21 21 20 20 21 22 22 22 22 23 23 23 23 23 23 23 24 25 25 24 24 24 25 25 26 27 27 27
13 14 15 15 16 15 16 16 17 18 18 18 18 18 18 18 18 18 18 19 19 20 20 20 19 19 20 20 21 21 21 22 22 23 23 23 23 23 24 24 25 25 25 25
Wind_Direction
237 239 241 242 243 244 245 247 251 255 258 259 258 259 260 260 260 260 261 261 260 262 265 267 265 266 268 272 274 274 275 275 276 277 278 279 280 281 279 277 275 275 276 277
239 241 243 244 245 245 246 248 251 254 257 257 257 258 258 259 259 260 262 263 263 264 265 265 264 265 268 270 272 274 275 276 276 275 276 278 278 279 279 278 276 276 276 278
242 243 246 247 246 247 248 249 252 255 257 259 258 258 259 259 259 260 262 263 264 265 266 265 266 266 268 269 271 274 275 275 277 279 279 280 280 281 279 278 277 278 278 278
242 244 247 249 250 250 250 249 252 255 257 259 259 257 258 259 260 260 261 262 263 265 265 264 265 267 267 268 271 273 275 276 277 280 281 282 282 282 283 280 279 279 279 278
243 247 251 251 251 252 252 252 253 255 257 259 259 257 256 257 259 260 262 263 263 264 264 264 266 267 266 267 270 273 275 276 277 279 280 281 281 283 283 281 281 280 280 278
244 246 250 254 253 254 255 257 256 255 256 258 258 257 257 258 259 260 261 264 264 264 263 263 265 266 265 265 267 271 273 275 277 279 280 281 282 284 284 282 281 280 279 278
245 247 251 253 254 253 255 257 256 256 256 256 257 258 257 258 259 260 261 264 264 264 262 263 264 265 266 266 268 271 273 275 278 280 281 282 283 284 285 283 281 280 279 278
246 248 251 254 255 254 256 257 256 254 255 257 257 256 256 257 259 260 261 263 264 264 263 262 263 264 265 266 268 271 275 276 277 279 281 283 284 284 285 285 284 283 281 278
248 251 253 255 257 257 257 258 257 256 255 256 256 256 256 258 259 261 263 264 264 265 264 262 262 263 264 266 268 271 273 275 276 279 282 283 285 286 287 289 287 286 283 279
250 252 254 257 258 259 260 258 258 258 258 257 256 256 258 259 261 261 262 263 264 265 264 262 261 261 262 265 267 270 272 275 278 280 282 284 286 288 290 290 288 286 284 281
251 252 255 258 260 261 261 259 259 258 258 258 258 258 260 260 260 261 261 261 262 262 262 262 261 260 261 264 266 269 272 275 278 280 281 283 284 287 290 291 289 287 284 282
253 253 256 258 260 260 259 258 259 260 259 259 259 261 261 260 260 259 260 260 260 261 262 262 260 260 262 264 266 268 271 275 277 279 280 282 284 286 288 289 289 289 287 284
255 255 256 258 259 259 257 257 259 260 261 261 260 261 260 259 259 259 260 259 260 261 262 262 262 263 264 265 266 268 271 273 275 277 279 282 284 285 287 288 288 288 288 285
255 255 256 259 258 258 258 258 258 260 261 260 259 260 260 259 259 261 261 259 260 261 262 263 264 265 266 268 269 270 270 272 274 276 278 281 283 285 287 287 286 286 286 285
256 257 258 259 259 258 259 260 261 261 259 260 260 259 259 259 260 261 261 261 261 261 263 265 266 266 267 269 270 270 271 273 275 277 279 280 282 284 285 285 286 286 285 284
259 258 258 259 260 261 261 261 262 261 259 259 259 258 258 258 259 260 260 260 261 261 263 265 266 267 269 271 272 272 273 275 276 277 279 280 281 281 282 283 284 285 283 282
258 259 259 259 260 261 262 262 262 259 258 258 257 256 257 258 259 261 261 261 261 262 264 266 267 269 271 272 273 273 275 276 277 278 278 279 280 280 280 281 283 284 283 281
260 260 261 260 259 260 261 262 262 261 259 257 256 257 257 259 260 261 262 263 262 263 266 267 268 270 272 274 275 275 276 278 277 278 278 279 280 279 279 280 281 281 282 281
261 262 263 263 263 262 262 263 262 260 257 256 258 258 258 258 260 261 262 262 263 264 267 269 270 271 272 274 275 276 276 277 277 277 276 278 280 280 280 279 279 279 279 278
263 263 263 265 266 266 265 264 262 260 260 259 259 260 260 261 263 264 263 264 266 267 268 269 270 272 272 273 274 275 276 276 275 276 276 278 279 279 279 278 276 276 277 277
263 263 265 265 267 268 266 265 265 263 263 263 262 262 262 263 265 266 265 266 267 268 269 270 271 272 274 274 274 275 276 275 275 275 277 278 278 280 279 278 277 276 275 275
261 263 265 266 266 266 266 266 267 267 267 266 265 266 265 265 265 266 267 268 269 269 269 271 273 274 276 276 276 276 276 275 275 276 276 277 278 279 277 276 275 275 275 275
262 263 265 265 266 266 268 268 268 268 268 268 269 269 268 267 267 268 267 267 267 268 270 272 274 276 277 277 277 277 276 275 275 275 276 277 277 277 276 275 274 274 276 276
265 264 266 267 269 269 269 269 269 269 269 269 271 272 272 271 268 267 268 268 268 268 270 272 274 276 278 278 278 278 276 276 275 275 277 277 277 276 276 276 275 276 276 275
268 266 267 267 268 270 269 268 270 272 273 273 272 272 272 272 270 270 271 270 269 268 269 271 275 277 278 278 279 279 278 276 275 276 277 277 277 278 278 277 277 276 277 276
273 270 269 269 270 272 271 270 272 276 277 278 276 274 273 273 273 272 272 271 269 269 271 273 276 277 279 280 278 276 274 274 276 278 279 279 281 282 281 281 279 277 277 276
278 275 273 275 273 272 273 272 270 272 274 274 275 276 275 274 275 275 275 275 273 273 274 275 277 279 281 283 282 280 280 280 281 282 283 282 282 283 283 282 280 279 277 277
Height
5804 5806 5809 5811 5813 5815 5817 5819 5821 5823 5823 5824 5825 5825 5826 5826 5827 5827 5828 5828 5828 5828 5828 5828 5828 5828 5828 5828 5827 5826 5826 5825 5824 5823 5822 5821 5821 5819 5818 5817 5816 5815 5815 5814
5797 5799 5802 5804 5806 5808 5810 5812 5813 5815 5816 5817 5818 5818 5819 5820 5821 5821 5822 5822 5822 5822 5822 5822 5822 5822 5822 5822 5822 5821 5820 5820 5819 5818 5817 5816 5815 5813 5812 5811 5810 5809 5808 5807
5791 5793 5794 5797 5800 5802 5803 5805 5807 5808 5810 5809 5811 5811 5812 5813 5814 5815 5815 5816 5816 5816 5816 5816 5816 5816 5816 5816 5816 5815 5815 5814 5813 5812 5811 5810 5809 5807 5806 5805 5804 5803 5802 5801
5784 5786 5787 5792 5792 5794 5795 5797 5799 5800 5801 5802 5803 5804 5805 5806 5807 5808 5809 5809 5809 5810 5810 5810 5810 5809 5809 5809 5809 5809 5809 5808 5807 5806 5805 5804 5803 5801 5800 5798 5797 5796 5795 5793
5777 5779 5781 5783 5785 5786 5787 5789 5791 5792 5793 5793 5794 5795 5797 5798 5799 5801 5802 5802 5802 5802 5803 5803 5803 5802 5803 5803 5803 5802 5802 5801 5801 5800 5798 5797 5796 5794 5793 5791 5790 5789 5787 5786
5769 5772 5774 5776 5777 5778 5780 5781 5783 5783 5784 5785 5786 5787 5789 5790 5791 5793 5794 5794 5795 5795 5795 5795 5795 5795 5795 5796 5796 5795 5795 5794 5794 5792 5791 5790 5788 5787 5785 5784 5782 5781 5780 5778
5762 5764 5766 5767 5768 5771 5773 5774 5774 5775 5776 5777 5778 5780 5782 5782 5783 5785 5786 5786 5787 5787 5787 5788 5788 5788 5788 5788 5788 5788 5787 5787 5786 5785 5784 5782 5781 5779 5777 5775 5774 5773 5772 5770
5755 5757 5761 5759 5761 5763 5764 5765 5766 5767 5768 5769 5770 5772 5773 5774 5775 5776 5777 5778 5779 5779 5779 5779 5780 5780 5780 5781 5781 5780 5780 5779 5778 5777 5776 5774 5773 5770 5768 5767 5765 5764 5763 5761
5748 5751 5750 5751 5752 5754 5755 5757 5758 5759 5760 5761 5762 5763 5764 5765 5766 5768 5769 5770 5770 5770 5771 5771 5771 5772 5772 5773 5773 5772 5772 5771 5770 5769 5767 5766 5764 5762 5760 5758 5756 5755 5753 5752
5740 5741 5742 5743 5744 5745 5747 5748 5749 5750 5751 5752 5753 5754 5756 5757 5757 5759 5760 5761 5761 5762 5762 5762 5762 5763 5764 5764 5764 5764 5763 5762 5761 5760 5759 5757 5755 5753 5751 5749 5747 5746 5744 5743
5731 5733 5734 5735 5736 5737 5738 5739 5740 5741 5742 5743 5744 5746 5747 5748 5749 5750 5751 5751 5752 5752 5753 5753 5753 5754 5755 5755 5755 5754 5754 5753 5752 5751 5750 5748 5747 5745 5743 5741 5739 5737 5735 5733
5723 5724 5726 5727 5728 5729 5730 5731 5732 5732 5733 5734 5735 5737 5737 5738 5739 5740 5741 5742 5743 5743 5744 5744 5744 5745 5745 5745 5745 5745 5744 5744 5743 5742 5740 5739 5737 5736 5734 5732 5730 5727 5725 5723
5714 5716 5717 5718 5719 5720 5721 5722 5723 5723 5724 5725 5726 5727 5728 5729 5730 5731 5732 5733 5733 5734 5734 5735 5735 5736 5736 5735 5735 5735 5735 5734 5733 5732 5731 5730 5728 5726 5725 5723 5721 5719 5716 5714
5706 5707 5708 5709 5710 5711 5712 5713 5713 5714 5715 5715 5716 5717 5718 5720 5721 5722 5723 5724 5724 5724 5725 5725 5726 5726 5726 5726 5725 5725 5724 5724 5723 5722 5721 5720 5719 5717 5715 5713 5711 5709 5707 5705
5697 5698 5699 5700 5701 5702 5703 5704 5704 5705 5705 5706 5707 5708 5709 5710 5711 5712 5713 5714 5714 5715 5715 5716 5716 5716 5716 5716 5715 5715 5714 5714 5713 5712 5711 5710 5709 5707 5705 5703 5701 5699 5698 5696
5689 5689 5690 5691 5693 5693 5694 5695 5695 5696 5696 5697 5697 5698 5699 5700 5702 5702 5703 5704 5705 5705 5706 5706 5706 5707 5706 5706 5705 5704 5704 5703 5702 5701 5700 5699 5698 5697 5695 5693 5691 5690 5688 5687
5681 5681 5682 5683 5684 5684 5685 5685 5686 5686 5687 5688 5688 5689 5690 5691 5692 5693 5693 5694 5695 5695 5696 5696 5696 5696 5696 5695 5695 5694 5694 5693 5692 5691 5689 5688 5687 5686 5684 5683 5681 5680 5678 5676
5673 5673 5674 5675 5675 5676 5676 5676 5677 5677 5678 5679 5679 5680 5681 5682 5683 5684 5684 5685 5685 5686 5686 5686 5686 5685 5685 5685 5684 5684 5683 5682 5681 5680 5679 5678 5676 5675 5673 5672 5670 5669 5667 5666
5665 5665 5666 5666 5667 5667 5667 5668 5668 5669 5669 5670 5671 5672 5673 5674 5674 5675 5675 5676 5676 5676 5676 5676 5675 5675 5674 5674 5673 5672 5672 5671 5670 5669 5668 5667 5665 5664 5662 5661 5660 5658 5657 5656
5657 5658 5658 5659 5659 5659 5659 5659 5660 5661 5661 5662 5663 5664 5665 5665 5665 5665 5666 5666 5666 5666 5666 5665 5665 5664 5663 5662 5661 5661 5660 5659 5658 5657 5656 5655 5654 5653 5651 5650 5649 5648 5646 5645
5650 5650 5651 5651 5651 5651 5652 5652 5652 5653 5653 5654 5654 5655 5656 5656 5656 5656 5656 5656 5656 5656 5655 5655 5654 5653 5652 5651 5650 5649 5648 5647 5646 5646 5645 5644 5643 5641 5640 5638 5637 5637 5636 5635
5643 5643 5643 5644 5644 5644 5644 5644 5645 5645 5645 5646 5646 5646 5646 5647 5647 5646 5646 5646 5646 5645 5645 5644 5644 5642 5641 5640 5638 5637 5636 5635 5635 5634 5634 5633 5632 5630 5629 5628 5627 5626 5625 5624
5636 5636 5636 5636 5636 5636 5636 5637 5637 5637 5637 5637 5637 5637 5637 5637 5637 5636 5636 5636 5636 5635 5635 5634 5634 5633 5631 5630 5629 5627 5626 5626 5625 5624 5623 5623 5621 5620 5618 5617 5616 5615 5614 5613
5629 5629 5629 5629 5629 5629 5629 5629 5629 5629 5629 5629 5629 5629 5628 5628 5627 5627 5626 5627 5626 5626 5626 5625 5624 5623 5622 5621 5620 5618 5617 5616 5615 5615 5614 5613 5611 5610 5608 5607 5606 5605 5604 5603
5624 5624 5624 5623 5623 5623 5622 5622 5622 5622 5622 5621 5621 5621 5620 5619 5619 5618 5618 5618 5617 5617 5617 5616 5616 5615 5613 5612 5611 5609 5608 5607 5606 5605 5604 5603 5601 5600 5599 5598 5596 5596 5595 5594
5619 5618 5618 5618 5617 5617 5616 5616 5615 5615 5615 5615 5614 5613 5612 5612 5611 5610 5610 5610 5610 5609 5609 5608 5607 5606 5605 5604 5602 5601 5600 5599 5598 5596 5595 5594 5592 5591 5589 5588 5587 5586 5586 5585
5614 5614 5613 5612 5612 5611 5610 5610 5610 5609 5609 5608 5607 5606 5605 5605 5604 5604 5603 5603 5602 5602 5601 5601 5600 5599 5598 5596 5595 5593 5592 5591 5590 5588 5587 5586 5584 5583 5581 5580 5579 5578 5577 5576